Orbital Elements at Epoch 2459200.5 (2020-Dec-17.0) TDB
Reference: JPL 9 (heliocentric ecliptic J2000)
Element | Value | Uncertainty (1-sigma) | Units |
e | .5235548088000799 | 2.071e-07 | |
a | 5.730073232850997 | 2.5429e-06 | au |
q | 2.730065837015238 | 3.053e-07 | au |
i | 19.97530002913005 | 1.4022e-05 | deg |
node | 220.0054159869877 | 2.2032e-05 | deg |
peri | 268.4051860048656 | 3.2409e-05 | deg |
M | 245.7597916430233 | 0.00017057 | deg |
tp | 2460790.346412925117 (2025-Apr-24.84641293) | 0.0034312 | TDB |
period | 5010.01107127348 13.72 | 0.003335 9.131e-06 | d yr |
n | .07185612863495983 | 4.7832e-08 | deg/d |
Q | 8.730080628686757 | 3.8742e-06 | au |
|
| | Orbit Determination Parameters
Additional Information
|